sat.trackr.live / text

‹ back to catalog

STARLINK-5730

NORAD 55611 · 2023-020AU

PAYLOAD ACTIVE UNKNOWN

§ Identity

Operator
Country
US
Launch date
2023-02-12
Launch site
AFETR
Launch vehicle
Mass (kg)
RCS (m²)

Purposes: comms

External: N2YO · Heavens-Above · Gunter

§ Orbital elements

Epoch: 2026-09-20T22:09:48.689280Z

Period
94.27 min
Inclination
43.0047°
Eccentricity
0.0001683
Mean motion
15.27574728 rev/d
Perigee alt
481.9 km
Apogee alt
484.2 km
Semi-major
6,861.2 km
B*
9.7012e-6
RAAN
331.9981°
Arg perigee
268.5979°
Mean anomaly
91.4680°
Rev number
19,889

§ Raw data

STARLINK-57301 55611U 23020AU  26263.92348020  .00000005  00000+0  97012-5 0  99902 55611  43.0047 331.9981 0001683 268.5979  91.4680 15.27574728198897

JSON: /api/v1/satellites/55611 · /tle

For live sub-satellite position, see the globe view (requires WebGL).

§ Visibility from observer

Set your observer location to see the next 7 days of passes ≥ 10°. The values pass through the URL so the page stays shareable.

No JS? Fill the form by hand. The geolocation button needs JavaScript.